Dewpoint
56 57 58 58 58 58 58 58 59 59 59 59 60 60 60 60 60 60 60 59 59 60 60 60 60 60 59 59 59 60 52 27 25 22 19 22 40 54 54 54 56 59 57 42 29 23 22 22 20 19 19 18 21 22 23 26 35 30 25 24 22 27 29 32 24 27 27 29 29 31 34 33 32 35 39 40 41 40 40 40 40 41 42 44 44 44 45 46
57 57 58 58 58 58 58 59 59 59 59 60 60 60 60 60 60 60 60 60 60 60 60 60 60 59 60 59 58 59 38 28 22 19 20 35 54 56 56 58 59 58 51 27 30 27 22 21 23 17 18 18 23 23 26 24 28 28 28 24 21 28 29 31 24 25 25 27 26 28 31 33 32 37 38 36 36 38 38 39 39 39 40 45 46 46 45 45
58 58 57 58 58 58 58 59 59 59 59 60 60 60 60 59 59 59 59 59 59 59 59 59 59 59 59 59 59 58 34 21 17 16 18 50 54 56 58 58 57 58 31 26 33 32 27 25 25 16 14 18 17 23 27 24 27 30 27 25 27 29 31 23 22 22 24 23 22 26 29 33 33 36 39 36 35 38 38 37 37 38 39 42 45 46 45 46
57 57 58 58 58 58 58 59 59 59 59 59 60 59 59 59 59 59 58 58 58 58 59 59 59 59 59 58 59 46 24 20 17 17 19 48 54 55 56 56 58 55 41 39 35 37 31 23 18 15 18 18 19 24 23 26 25 26 27 26 27 32 22 21 22 22 22 23 22 25 28 31 33 35 37 36 35 36 38 38 38 38 40 42 45 46 45 46
57 58 58 57 58 58 58 59 59 59 59 59 60 60 60 60 59 59 59 59 58 58 59 59 59 59 59 60 55 31 22 17 18 20 21 51 53 53 55 57 57 47 35 34 34 31 28 23 17 20 17 13 19 14 16 23 25 29 27 30 30 22 20 22 21 22 22 24 23 26 26 27 30 34 35 36 31 29 35 37 38 39 39 43 44 46 46 46
57 58 58 58 58 58 58 59 59 59 59 60 60 60 60 59 58 58 58 58 58 58 59 59 59 60 59 58 36 32 22 17 25 18 45 50 51 53 52 57 59 44 36 25 23 20 13 12 12 16 17 12 12 11 12 19 23 21 24 20 20 20 20 20 22 22 23 23 25 25 27 27 28 29 29 35 34 32 34 34 33 37 40 43 45 45 46 46
56 57 57 57 58 57 58 59 59 59 59 60 60 60 59 58 58 58 58 58 58 58 59 58 59 58 54 52 37 28 25 24 18 19 46 50 51 49 51 47 44 29 20 16 16 14 14 12 13 19 18 18 14 12 14 21 23 23 23 20 19 21 20 20 21 23 23 22 21 25 25 25 26 24 27 28 34 32 31 32 35 37 39 43 44 45 46 46
57 57 57 57 57 57 57 58 59 59 59 60 59 59 59 58 58 58 58 58 58 59 58 59 58 56 53 36 28 25 18 17 16 23 43 47 33 29 37 24 22 23 18 16 18 15 15 13 10 16 14 13 15 16 24 17 24 22 20 20 20 21 21 22 22 22 22 22 22 22 21 21 25 25 22 22 25 27 32 37 38 37 40 42 44 45 45 46
57 57 57 57 57 57 57 58 58 59 59 59 59 59 58 58 58 58 58 58 58 59 59 58 57 56 54 35 28 23 18 17 19 20 28 22 22 24 24 21 22 20 20 19 17 15 14 14 14 11 12 13 13 24 25 18 16 23 20 20 20 20 21 21 20 21 22 22 20 19 18 19 19 24 20 21 22 27 33 37 37 37 40 42 44 45 45 45
57 57 57 57 56 57 57 58 58 59 59 59 59 58 58 58 58 58 58 58 59 59 59 59 58 56 36 25 22 13 13 21 21 24 22 22 23 23 23 22 22 22 20 20 20 17 14 14 16 16 13 13 19 22 23 21 18 25 24 22 19 19 19 19 20 20 21 20 19 16 16 16 21 19 15 20 25 31 35 36 35 36 39 41 43 44 45 45
57 57 56 57 57 57 58 57 58 59 59 59 59 58 58 58 58 58 59 59 59 59 59 59 57 48 24 20 15 11 15 19 24 23 20 24 22 21 22 23 22 22 21 20 21 19 18 16 17 21 24 20 22 23 21 21 22 21 21 21 20 22 17 18 17 16 17 15 17 16 14 15 19 20 17 17 25 32 35 34 35 35 36 38 40 42 44 45
56 56 57 57 57 57 58 57 58 59 59 59 59 58 59 58 59 59 59 59 59 60 59 57 54 25 20 17 14 14 18 20 26 20 19 23 21 22 23 24 23 22 21 20 20 22 21 23 21 23 13 24 22 23 19 24 19 20 19 16 18 21 18 18 16 16 16 14 18 16 15 15 19 17 19 20 28 30 31 32 32 34 36 36 37 39 41 44
56 56 57 56 57 57 58 58 58 59 59 59 57 59 59 59 59 59 59 59 59 59 58 55 52 35 28 22 19 19 18 21 19 17 17 22 22 23 24 23 23 23 22 20 20 21 26 28 21 18 26 23 26 14 23 21 19 21 19 17 18 21 20 17 20 17 16 15 18 18 11 7 14 18 18 22 29 29 28 29 33 34 35 36 36 37 39 39
56 56 56 56 57 57 57 58 58 58 59 58 56 57 59 58 59 59 60 55 57 56 56 56 39 33 25 16 16 17 21 26 17 15 16 21 21 21 22 22 23 22 24 21 21 22 25 25 21 22 31 21 19 29 24 26 23 16 19 23 19 17 16 20 20 20 16 17 18 19 12 11 10 14 16 22 29 29 27 28 29 31 33 35 36 36 38 39
56 56 56 56 56 57 58 58 58 58 58 58 58 58 59 59 58 58 59 55 55 54 56 53 37 30 20 17 18 24 46 17 15 16 18 19 21 20 21 21 21 22 22 21 21 25 26 25 22 19 21 28 29 25 21 22 23 23 11 13 19 16 18 16 21 20 16 18 20 16 12 13 12 13 15 23 28 27 25 25 27 28 30 32 34 36 36 38
56 56 56 56 57 57 58 58 57 58 57 57 57 58 56 58 57 58 58 57 57 56 53 36 35 23 19 16 16 33 17 15 15 17 16 21 21 21 22 21 22 21 20 20 22 21 23 25 19 20 21 19 22 20 16 16 17 20 15 11 13 16 15 10 21 23 21 19 19 16 12 14 11 14 19 24 27 27 25 24 24 26 28 30 32 34 36 37
56 56 56 56 56 57 55 56 56 57 57 56 56 56 55 55 56 58 59 55 52 53 34 27 32 34 24 20 17 11 13 16 18 16 15 21 22 22 21 20 20 20 22 20 21 19 21 23 26 24 23 20 23 17 4 11 12 16 18 11 17 11 13 9 15 21 22 20 17 20 15 14 13 13 15 22 25 25 25 24 24 24 26 29 30 31 33 34
56 55 56 56 56 57 55 56 56 56 56 57 52 52 43 53 54 51 42 44 45 44 40 37 36 21 17 15 9 11 16 18 18 18 16 18 23 21 21 20 21 19 22 19 17 17 21 19 23 18 15 15 15 8 8 -10 2 7 14 12 14 17 17 16 14 15 15 20 16 15 16 16 15 13 10 9 22 22 19 19 20 22 24 26 29 31 32 33
55 55 55 56 56 57 57 57 55 55 55 55 56 55 54 52 41 29 33 32 30 24 22 18 22 14 10 14 15 17 18 18 19 12 14 18 22 22 23 22 23 15 18 15 17 22 23 23 23 13 7 13 16 15 9 10 17 15 16 15 14 14 14 12 15 19 17 8 9 8 8 4 4 3 2 3 14 18 16 16 18 20 22 24 26 29 31 32
55 55 55 55 56 57 57 57 56 55 55 43 42 40 39 32 29 19 26 30 21 19 18 21 22 22 20 15 16 18 20 14 9 10 15 19 24 19 19 23 22 22 23 14 20 23 25 14 11 6 10 16 16 19 18 18 19 20 19 18 17 17 16 17 17 20 21 11 9 8 9 7 5 4 5 7 8 12 13 13 13 16 18 21 23 26 29 31
54 54 55 55 56 56 57 56 56 56 55 43 42 37 29 28 16 10 20 24 28 30 24 24 21 15 13 15 18 17 6 8 10 10 14 19 22 16 14 20 20 16 19 23 20 24 22 14 13 17 14 16 17 20 20 18 20 19 17 16 14 16 12 14 12 17 20 10 10 9 9 8 9 8 8 8 12 11 11 11 11 12 14 17 20 22 25 28
54 54 54 55 55 56 56 56 55 56 53 43 40 35 35 32 32 22 22 14 23 29 22 21 18 15 17 18 18 17 11 6 4 9 15 22 20 4 13 20 18 11 20 23 20 19 15 13 13 18 20 21 21 19 18 14 15 17 12 12 8 9 15 15 15 18 17 13 7 11 9 8 6 6 6 9 10 13 13 12 11 12 12 15 18 20 22 24
54 54 54 55 55 56 56 54 54 53 39 42 41 40 39 42 45 43 28 22 22 27 23 22 19 15 15 17 18 16 13 10 9 10 14 24 21 24 24 21 22 23 18 21 17 16 9 14 18 19 21 17 17 19 18 17 17 11 10 6 -1 10 4 5 12 17 14 11 9 9 10 7 6 5 6 6 12 13 14 15 16 17 14 14 15 18 20 21
54 54 55 55 56 56 55 55 51 37 40 41 39 35 40 43 42 36 28 20 20 23 26 22 18 17 16 16 18 15 14 15 13 12 18 24 23 23 24 23 20 21 17 20 19 10 1 14 18 22 21 18 15 18 15 14 10 15 14 8 9 8 8 4 6 14 16 17 17 13 5 -2 -1 -2 0 3 10 13 14 14 14 16 20 19 20 20 20 19
54 55 55 55 55 56 56 51 36 35 39 34 37 41 42 43 41 33 27 24 25 23 28 30 22 19 19 21 22 20 17 18 17 16 20 24 25 23 22 24 17 14 19 20 16 11 7 13 19 15 16 17 15 14 15 11 11 7 9 10 6 9 9 10 14 10 3 2 14 11 1 -3 -4 1 3 5 12 6 9 10 8 8 15 19 18 18 19 21
54 55 56 56 53 53 52 31 26 40 31 27 36 42 41 42 42 35 25 21 11 23 23 18 24 16 20 19 21 24 14 13 15 16 29 22 30 24 24 21 15 6 17 21 14 7 11 16 14 14 16 18 17 15 16 13 8 1 -2 12 11 10 13 14 12 6 2 -7 -1 11 -8 -1 -1 1 2 9 10 4 4 6 6 6 11 17 18 18 18 18
54 54 55 55 53 50 26 24 31 33 22 26 42 41 41 43 43 27 18 13 9 19 16 23 20 17 24 22 20 12 -8 0 7 18 22 25 22 28 20 20 17 24 23 21 10 11 17 16 15 17 17 16 15 12 14 12 7 2 4 15 15 15 14 13 11 6 7 11 14 13 0 -5 -0 1 7 13 6 3 4 4 5 5 7 9 13 17 19 19
53 54 55 55 54 50 38 35 38 29 22 38 41 40 42 42 41 33 18 -9 -14 21 18 23 20 24 23 26 18 7 4 15 8 11 25 27 25 21 19 19 13 19 24 8 -13 -1 16 16 15 13 15 14 10 13 15 10 2 5 10 18 15 15 15 15 12 12 11 5 5 6 13 -2 0 6 8 5 -4 1 2 1 3 7 6 7 7 11 16 20
55 54 55 54 53 51 43 40 38 33 40 42 41 41 43 37 32 22 14 -8 3 20 26 22 26 13 21 27 24 24 21 23 9 13 23 24 20 18 15 21 21 23 24 20 9 14 19 19 20 14 13 8 11 15 16 12 7 13 13 19 18 19 18 15 12 11 8 1 -3 4 6 -5 1 3 -0 -3 0 0 1 3 4 8 8 6 9 10 15 20
54 54 54 54 47 42 41 37 39 43 42 41 43 44 38 36 25 19 -1 -8 22 4 21 19 7 10 23 20 19 18 15 18 24 24 21 18 15 21 23 27 25 22 16 21 19 19 20 28 26 14 10 5 10 17 17 13 15 20 19 14 12 12 16 16 11 6 2 -8 3 5 8 2 -3 -3 -3 -6 -6 -3 4 3 3 6 6 7 10 11 17 22
54 54 52 51 41 39 35 32 34 42 42 44 40 33 28 21 18 7 -5 1 17 18 23 20 13 24 21 12 7 14 20 20 18 21 15 24 19 21 22 16 20 18 17 16 11 18 17 22 17 18 26 19 16 12 20 20 21 17 15 10 -3 5 -1 5 6 4 -7 -7 0 3 10 -1 -8 1 2 5 6 7 3 3 5 5 6 9 11 13 16 21
53 53 51 46 44 43 41 32 42 42 42 41 34 28 21 10 17 -3 -12 19 9 17 7 7 20 20 19 22 15 13 16 14 18 21 19 18 19 12 12 6 11 -4 4 4 -2 10 -3 15 21 20 28 17 15 6 9 18 18 13 6 2 -8 -5 -4 -14 -6 -9 -10 -5 3 2 -0 -9 -3 -2 2 4 2 4 6 11 8 9 8 10 11 14 17 19
53 53 51 46 43 37 37 41 41 42 42 38 30 27 17 11 -9 6 5 9 -6 22 16 15 14 18 18 7 3 15 20 10 16 20 22 20 16 18 21 17 15 -13 -17 -3 4 -1 7 12 18 20 18 22 10 3 -0 -6 7 4 -1 -0 -5 -11 -16 -17 -7 -11 -10 -1 -0 -1 -2 -7 -4 -3 1 -2 0 4 6 8 10 10 10 12 12 14 16 15
52 51 39 43 40 39 39 40 41 42 38 37 25 18 14 -2 -7 24 6 8 6 23 21 13 19 19 10 -8 5 18 -1 15 20 18 16 12 16 8 15 19 18 13 7 6 -5 -6 -8 1 -3 18 8 16 11 2 -2 -3 1 0 3 -2 -5 -4 -14 -13 -16 -14 -6 -2 -4 -0 -8 -0 -8 10 6 2 4 10 10 8 9 13 13 12 12 9 10 11
52 46 42 40 37 40 41 40 41 40 36 30 21 19 5 3 1 -1 3 9 15 22 18 24 17 13 11 16 17 20 1 -4 16 14 14 6 -1 12 5 6 14 12 10 -2 1 -5 -9 -4 -2 17 18 15 12 17 14 2 -1 8 7 6 -1 -7 5 -10 -4 -11 -13 -6 -4 -6 -1 5 7 13 13 8 8 6 7 6 10 9 9 10 11 11 11 12
48 43 40 36 36 34 41 41 40 38 32 26 20 8 4 6 -3 5 6 18 20 11 18 16 14 6 9 5 8 9 13 2 10 7 3 11 6 4 11 11 9 13 5 -12 0 -6 -0 -10 9 17 15 14 13 20 17 5 -5 0 2 -3 -1 10 -2 -5 4 3 -1 -5 -2 -6 1 3 5 5 5 3 4 4 7 7 8 9 8 9 10 11 11 12
40 38 30 34 30 35 40 42 40 36 29 25 18 6 14 11 15 16 32 16 16 20 12 -4 1 -7 -5 -5 3 9 9 15 14 -2 -5 7 3 11 15 17 17 16 9 4 -0 2 -9 -6 5 13 11 17 16 20 19 20 7 5 -4 1 8 8 5 -0 -8 -8 -14 -11 -6 -2 -0 1 0 1 13 1 2 4 8 9 9 9 8 8 10 10 11 12
38 37 34 33 30 39 40 39 36 31 29 25 11 28 20 13 21 25 26 21 21 19 11 -3 -0 -0 -1 -4 -7 1 7 -3 9 8 -2 8 -5 17 17 14 19 18 16 18 -7 -6 11 -4 0 14 14 15 15 16 14 16 18 3 1 4 1 -5 -2 4 -5 -11 -13 -11 -8 -2 -4 -1 -1 6 6 1 1 5 8 9 9 9 8 8 9 11 12 13
36 33 23 25 37 40 41 38 33 30 23 14 10 14 23 23 26 26 26 26 23 18 8 10 5 12 4 -1 -1 5 5 -4 2 5 -10 -6 -0 8 11 16 15 20 20 14 8 11 3 -9 -0 5 11 12 8 8 5 11 16 18 15 9 9 -1 -3 -8 1 -3 -1 -6 -7 2 -6 -0 4 10 2 -0 1 7 9 9 9 9 9 9 10 12 13 14
34 31 25 28 38 40 41 38 32 25 17 11 12 15 22 22 25 28 27 25 21 9 9 9 12 6 7 3 8 0 6 5 1 -1 -8 -3 2 12 12 17 11 18 19 19 11 13 4 -3 -9 2 4 4 -1 7 4 10 7 10 8 4 4 -1 9 3 -4 -2 -1 -11 -11 -12 -4 -2 5 10 4 2 5 8 9 9 9 10 10 10 11 13 14 14
34 30 28 34 39 41 35 29 23 18 16 19 22 21 27 25 28 25 29 28 26 23 17 11 10 1 3 5 1 7 5 14 10 4 4 3 2 -4 7 16 17 14 16 10 10 11 -2 -0 -0 3 -1 2 -1 5 5 10 12 12 12 10 11 0 -2 -5 1 -4 -7 -7 -5 -12 -2 1 6 10 3 4 8 10 10 10 10 10 10 11 12 13 13 15
29 23 27 31 38 34 29 19 17 22 19 16 13 24 22 34 24 26 26 26 23 19 22 21 20 11 14 4 -0 10 5 9 12 9 11 -1 3 2 5 18 16 16 12 9 9 13 10 2 2 2 -1 -2 -1 5 13 11 11 12 8 9 10 5 4 -4 -6 1 -4 -0 -6 -7 -8 2 4 6 4 7 9 11 11 11 10 10 10 11 13 13 14 15
26 20 28 35 39 29 22 11 22 21 18 24 26 26 27 28 21 23 22 24 19 21 19 18 17 16 15 10 16 13 9 3 12 9 13 10 7 7 15 23 17 14 17 10 9 10 23 1 -3 2 4 3 5 7 9 14 10 8 9 9 6 1 7 8 3 -2 0 -2 -2 -3 -3 4 3 7 10 9 11 12 12 11 11 10 10 11 13 13 14 16
28 27 23 31 36 33 21 10 10 10 16 23 25 25 26 27 25 22 23 23 17 21 17 18 19 18 11 19 12 6 10 -2 7 6 4 16 13 23 20 23 17 12 7 12 11 16 -1 9 0 -3 0 1 3 6 5 7 7 7 4 8 9 6 3 0 1 -2 1 7 5 1 0 4 3 5 10 12 12 12 12 12 11 10 11 12 14 14 15 17
26 27 27 31 30 25 18 22 17 11 20 21 22 22 22 22 25 23 24 23 24 20 16 15 18 20 20 20 16 20 20 -1 -2 5 9 12 14 22 20 19 21 14 24 23 22 8 2 8 -1 -6 -10 -10 -8 -7 -3 1 -0 5 6 7 8 9 6 4 3 2 3 6 4 -1 2 4 5 6 11 12 12 13 13 12 12 12 12 13 16 16 17 18
22 9 23 17 22 24 24 25 24 21 19 18 11 15 20 19 24 26 25 24 25 23 19 20 21 21 19 14 12 13 11 14 2 3 7 7 11 22 23 19 21 20 26 30 24 10 -0 8 3 3 2 -1 2 3 4 7 3 -1 3 4 6 10 10 8 8 3 4 5 3 6 5 5 6 7 12 12 13 12 13 13 12 13 15 16 17 16 18 19
22 7 20 6 17 20 18 23 23 18 13 19 3 13 13 18 20 18 24 21 23 22 22 20 20 11 13 13 11 11 17 13 17 12 10 7 11 16 21 23 21 26 30 25 18 8 2 2 8 6 5 4 2 1 11 9 3 3 4 9 9 8 10 9 7 7 9 4 5 7 8 6 7 9 12 13 13 14 13 13 12 14 15 16 17 16 23 19
5 13 24 23 10 7 11 18 24 22 21 12 8 19 15 20 20 11 21 23 23 22 18 15 20 18 16 13 13 4 12 14 14 7 13 12 15 16 16 20 23 25 22 17 16 11 4 2 3 4 4 7 8 6 7 7 7 6 6 8 10 10 9 8 9 11 10 7 7 7 8 8 10 11 12 13 14 14 13 14 13 14 16 17 17 18 19 19
24 25 21 25 17 21 19 19 24 23 21 15 20 20 14 20 17 17 21 23 22 21 20 9 14 19 18 18 8 3 16 -1 2 7 11 8 10 10 8 9 20 21 19 17 15 5 7 7 2 3 6 10 10 10 10 9 10 11 11 11 11 11 11 11 11 11 11 10 11 11 11 11 11 12 13 15 15 15 15 15 15 16 16 17 17 19 19 19
22 15 14 23 23 21 20 24 24 22 20 25 12 18 18 20 18 20 20 20 15 18 22 16 16 20 20 19 13 6 12 10 -7 -3 5 10 6 9 6 12 11 20 19 14 12 13 7 5 11 7 2 8 8 9 10 11 11 10 10 11 12 12 12 12 11 11 10 11 12 12 11 11 12 14 14 15 16 16 16 16 16 16 17 17 18 19 19 19
28 24 24 13 8 16 21 23 23 22 17 17 13 18 18 20 19 21 19 22 16 16 20 17 18 21 22 20 19 15 16 17 10 6 12 13 8 16 11 7 19 15 14 13 10 11 5 6 1 -0 2 7 8 11 11 11 11 11 10 10 10 10 6 7 3 9 6 5 5 4 4 8 11 15 15 16 16 16 15 16 16 17 17 17 19 19 19 19
27 29 31 24 11 25 17 17 17 16 13 19 19 19 16 17 22 20 13 19 20 23 22 20 21 22 22 20 19 19 19 19 19 19 21 19 19 18 13 11 18 19 16 14 11 10 9 5 4 2 3 6 7 9 10 10 7 5 4 6 6 8 7 6 6 9 10 9 5 4 8 11 14 15 15 15 16 16 16 16 17 17 17 18 19 19 19 18